GEFSMW_con_prob3kmehi_108.txt.gz
EHI
31 31 31 33 40 48 54 54 52 49 43 39 38 37 32 26 22 17 13 11 9 7 6 4 4 3 2 1 0 0 0 0 0 0 0 1 2 4 3 2 1 1 0
34 33 30 32 37 44 48 50 48 45 40 36 33 30 27 23 20 19 16 12 9 7 5 4 4 3 2 1 0 0 0 0 0 0 0 0 1 1 1 1 0 0 0
36 33 32 33 35 38 43 45 44 41 37 34 28 24 21 19 20 22 18 12 9 5 4 4 4 3 2 1 0 0 0 0 0 0 0 0 0 0 0 0 0 0 0
33 32 34 35 35 35 40 46 46 40 35 31 25 21 17 16 20 23 20 14 8 5 4 4 4 3 2 0 0 0 0 0 0 0 0 0 0 0 0 0 0 0 0
25 29 33 34 34 33 37 43 46 40 32 26 22 18 16 18 23 26 23 14 7 5 5 5 4 3 1 1 1 1 1 0 0 0 0 0 0 0 0 0 0 0 0
18 24 31 33 33 32 33 37 40 38 32 27 23 19 19 25 29 28 21 12 7 6 6 6 4 3 2 2 3 3 2 0 0 0 0 0 0 0 0 0 0 0 0
18 23 30 34 33 33 33 34 35 35 32 30 27 25 24 28 28 21 13 8 6 6 6 7 6 4 3 3 4 3 1 0 0 0 0 0 0 0 0 0 0 0 0
21 24 30 33 32 32 34 36 35 31 29 31 31 29 25 23 19 13 7 5 5 6 8 10 8 6 4 3 3 1 0 0 0 0 0 0 0 0 0 0 0 0 0
23 24 27 29 28 30 34 37 35 30 28 30 30 26 21 16 13 11 7 4 5 7 12 12 9 6 3 2 1 1 0 0 0 0 0 0 0 0 0 0 0 0 0
22 22 23 25 27 29 34 38 38 34 31 30 26 23 20 16 14 12 9 7 7 9 12 12 9 6 2 1 1 1 1 1 1 1 1 1 1 1 0 0 0 0 0
20 19 21 24 27 29 34 41 44 40 34 31 28 26 24 20 17 15 13 13 12 11 11 11 10 7 3 2 2 2 2 2 2 2 3 3 3 2 1 0 0 0 0
17 19 23 26 28 30 35 43 47 42 35 33 33 31 29 26 23 21 22 22 19 15 12 11 11 9 6 5 4 4 4 4 4 4 4 5 5 4 2 0 0 0 0
18 24 32 36 36 38 42 46 46 39 34 34 35 33 31 31 29 28 30 29 25 19 15 13 12 11 9 7 6 5 5 6 6 6 6 6 5 4 2 1 0 0 0
26 34 47 54 53 52 53 51 45 39 37 39 39 38 37 38 38 37 37 34 28 22 18 17 15 12 10 8 7 6 7 7 7 6 6 6 4 3 2 1 0 0 0
34 45 60 68 68 67 64 57 51 48 49 50 50 49 48 48 49 48 46 41 32 24 21 21 18 14 9 6 6 6 7 9 9 8 7 4 2 1 1 0 0 0 0
41 52 67 74 76 75 71 66 63 63 64 63 60 59 59 58 56 54 53 48 39 31 28 25 20 15 8 4 3 3 5 8 9 10 8 4 1 0 0 0 0 0 0
47 56 69 77 80 78 75 73 72 73 73 71 69 69 68 64 59 57 56 54 47 40 36 31 23 16 9 3 0 1 2 4 7 9 9 4 1 0 1 1 0 0 0
53 58 66 73 77 77 77 76 75 75 74 74 75 77 74 69 64 62 61 58 53 47 41 35 28 21 12 3 0 0 0 1 3 5 5 3 1 0 1 1 0 0 0
50 54 58 63 69 73 76 76 74 72 72 74 75 77 75 71 68 67 64 59 54 50 42 36 31 25 15 4 0 0 0 0 1 1 1 1 0 0 1 1 0 0 0
41 46 51 56 64 70 72 72 70 68 67 67 68 70 70 67 65 64 60 54 50 46 39 33 31 27 17 6 1 0 0 0 1 1 1 1 0 0 0 0 0 0 0
36 42 50 57 62 65 66 66 64 60 56 54 54 56 57 55 53 53 51 46 41 39 34 31 32 29 19 8 2 0 0 1 2 2 2 2 1 0 0 0 0 0 0
34 38 46 51 52 52 53 53 49 43 38 36 36 38 39 37 36 39 39 35 31 29 28 27 27 26 19 9 2 0 0 1 2 2 2 2 1 0 0 0 0 0 0
30 31 34 35 34 33 35 35 31 26 23 23 23 24 24 22 22 24 24 22 20 18 17 17 18 18 14 8 2 0 0 0 1 1 1 1 0 0 0 0 0 0 0
24 23 23 22 21 21 22 22 20 18 17 17 17 17 16 14 12 12 12 12 11 9 8 8 10 10 8 5 2 1 1 1 1 0 0 0 0 0 0 0 0 0 0
17 18 19 19 18 17 17 16 15 15 15 14 14 13 11 8 6 6 6 5 4 4 4 4 4 4 4 3 2 2 2 2 1 0 0 0 0 0 0 0 0 0 0
14 15 16 17 17 16 16 14 13 13 13 13 12 11 8 5 4 4 4 2 1 1 2 1 1 1 1 1 1 1 1 1 1 0 0 0 0 0 0 0 0 0 0

GEFSMW_con_prob3kmehi_114.txt.gz
EHI
29 28 30 34 35 34 32 31 28 27 28 27 25 22 16 11 7 4 3 3 3 3 3 1 0 0 0 0 0 0 0 0 0 0 0 0 0 0 0 0 0 0 0
29 28 29 32 33 32 30 29 27 26 26 25 24 21 15 9 6 4 3 3 3 3 3 2 0 0 0 0 0 0 0 0 0 0 0 0 0 0 0 0 0 0 0
28 27 28 29 30 28 26 25 25 24 23 23 23 19 14 9 5 3 3 3 3 3 3 1 0 0 0 0 0 0 0 0 0 0 0 0 0 0 0 0 0 0 0
24 25 25 26 26 25 23 23 21 20 20 20 20 18 13 9 5 4 3 3 3 3 3 1 0 0 0 0 0 0 0 0 0 0 0 0 0 0 0 0 0 0 0
22 21 21 21 23 24 23 20 18 17 17 15 14 13 10 7 5 4 3 2 3 3 3 2 0 0 0 0 0 0 0 0 0 0 0 0 0 0 0 0 0 0 0
22 19 17 17 20 23 21 16 14 14 14 12 9 7 6 5 4 3 2 1 1 2 2 1 0 0 0 0 0 0 0 0 0 0 0 0 0 0 0 0 0 0 0
20 18 16 16 19 21 17 13 11 12 13 11 7 4 4 4 3 2 1 0 0 1 1 0 0 0 0 0 0 0 0 0 0 0 0 0 0 0 0 0 0 0 0
19 17 16 17 19 19 16 13 11 11 12 10 7 4 4 4 3 2 1 0 0 0 0 0 0 0 0 0 0 0 0 0 0 0 0 0 0 0 0 0 0 0 0
19 17 16 17 18 18 16 13 10 10 10 9 7 5 4 3 2 1 0 0 0 0 0 0 0 0 0 0 0 0 0 0 0 0 0 0 0 0 0 0 0 0 0
17 17 16 16 17 17 17 14 10 9 8 7 7 6 4 3 2 1 0 0 0 0 0 0 0 0 0 0 0 0 0 0 0 0 0 0 0 0 0 0 0 0 0
15 17 18 17 15 17 20 17 11 8 7 7 6 6 5 4 2 1 0 0 0 0 0 0 0 0 0 0 0 0 0 0 0 0 0 0 0 0 0 0 0 0 0
14 17 19 17 15 18 22 20 13 8 7 7 6 6 6 4 3 1 1 0 0 0 0 0 0 0 0 0 0 0 0 0 0 0 0 0 0 0 0 0 0 0 0
11 16 19 18 17 21 24 23 17 12 9 8 7 7 7 6 4 3 2 1 0 0 0 0 0 0 0 0 0 0 1 1 1 0 0 0 0 0 0 0 0 0 0
12 17 19 18 18 21 25 25 21 16 12 10 9 9 9 8 7 6 4 2 0 0 0 0 0 0 0 0 0 0 1 2 1 0 0 0 0 0 0 0 0 0 0
16 18 19 17 17 19 22 24 22 19 16 13 11 10 10 10 8 6 5 2 1 0 0 0 0 0 0 0 0 0 1 1 1 0 0 0 0 0 0 0 0 0 0
14 16 17 16 16 18 20 23 24 22 20 16 13 11 11 10 8 7 6 3 1 0 0 0 0 0 0 0 0 0 0 0 0 0 0 0 0 0 0 0 0 0 0
10 11 12 12 12 13 16 20 23 24 22 19 16 14 12 10 10 9 7 4 1 0 1 0 0 0 0 0 0 0 0 0 0 0 0 0 0 0 0 0 0 0 0
11 9 8 7 7 7 9 14 20 23 22 21 20 16 13 11 10 9 8 5 2 1 1 1 0 0 0 0 0 0 0 0 0 0 0 0 0 0 0 0 0 0 0
12 9 6 4 4 3 4 9 15 20 22 22 20 18 14 10 8 7 6 4 4 3 2 1 0 0 0 0 0 0 0 0 0 0 0 0 0 0 0 0 0 0 0
10 7 4 2 2 2 4 8 11 15 17 16 16 15 13 10 6 4 2 2 4 3 2 1 0 0 0 0 0 0 0 0 0 0 0 0 0 0 0 0 0 0 0
5 4 3 2 1 2 4 6 8 8 7 7 7 8 9 7 4 2 0 0 1 1 1 1 0 0 0 0 0 0 0 0 0 0 0 0 0 0 0 0 0 0 0
2 2 2 2 1 2 3 4 4 3 2 1 2 4 4 3 2 2 0 0 0 0 0 0 0 0 0 0 0 0 0 0 0 0 0 0 0 0 0 0 0 0 0
1 1 1 1 1 2 3 3 3 2 1 1 2 2 1 0 1 1 0 0 0 0 0 0 0 0 0 0 0 0 0 0 0 0 0 0 0 0 0 0 0 0 0
1 1 0 0 1 2 3 2 1 1 0 1 1 1 0 0 0 0 0 0 0 0 0 0 0 0 0 0 0 0 0 0 0 0 0 0 0 0 0 0 0 0 0
2 1 0 0 1 2 1 1 0 0 0 0 0 0 0 0 0 0 0 0 0 0 0 0 0 0 0 0 0 0 0 0 0 0 0 0 0 0 0 0 0 0 0
1 1 0 0 1 1 0 0 0 0 0 0 0 0 0 0 0 0 0 0 0 0 0 0 0 0 0 0 0 0 0 0 0 0 0 0 0 0 0 0 0 0 0

GEFSMW_con_prob3kmehi_120.txt.gz
EHI
13 13 16 17 15 14 15 17 17 15 11 6 3 1 2 1 0 0 0 0 0 0 0 0 0 0 0 0 0 0 0 0 0 0 0 0 0 0 0 0 0 0 0
12 13 15 16 15 15 16 17 15 12 9 7 5 3 2 1 0 0 0 0 0 0 0 0 0 0 0 0 0 0 0 0 0 0 0 0 0 0 0 0 0 0 0
9 10 11 12 13 15 18 17 14 10 8 7 7 6 4 1 0 0 0 0 0 0 0 0 0 0 0 0 0 0 0 0 0 0 0 0 0 0 0 0 0 0 0
4 5 6 9 11 14 17 18 15 11 9 8 8 8 6 2 0 0 0 0 0 0 0 0 0 0 0 0 0 0 0 0 0 0 0 0 0 0 0 0 0 0 0
2 2 4 7 10 13 15 17 15 12 10 10 10 9 7 3 0 0 0 0 0 0 0 0 0 0 0 0 0 0 0 0 0 0 0 0 0 0 0 0 0 0 0
2 2 4 7 9 11 13 14 14 12 12 13 12 9 6 4 2 0 0 0 0 0 0 0 0 0 0 0 0 0 0 0 0 0 0 0 0 0 0 0 0 0 0
2 2 4 5 7 9 11 12 11 11 12 13 12 8 6 5 4 1 0 0 0 0 0 0 0 0 0 0 0 0 0 0 0 0 0 0 0 0 0 0 0 0 0
1 1 2 3 4 7 10 11 10 10 10 11 10 8 6 6 4 2 0 0 0 0 0 0 0 0 0 0 0 0 0 0 0 0 0 0 0 0 0 0 0 0 0
0 0 0 1 3 5 9 10 10 9 9 9 9 7 6 5 3 1 0 0 0 0 0 0 0 0 0 0 0 0 0 0 0 0 0 0 0 0 0 0 0 0 0
0 0 0 1 2 4 6 9 10 9 9 9 9 8 5 4 3 1 0 0 0 0 0 0 0 0 0 0 0 0 0 0 0 0 0 0 0 0 0 0 0 0 0
0 0 0 0 1 3 5 7 9 10 10 10 9 8 5 3 2 1 0 0 0 0 0 0 0 0 0 0 0 0 0 0 0 0 0 0 0 0 0 0 0 0 0
0 0 0 0 1 3 4 6 8 9 9 9 8 7 4 3 2 1 0 0 0 0 0 0 0 0 0 0 0 0 0 0 0 0 0 0 0 0 0 0 0 0 0
0 0 0 0 1 3 5 5 5 6 7 7 7 6 4 2 1 1 1 0 0 0 0 0 0 0 0 0 0 0 0 0 0 0 0 0 0 0 0 0 0 0 0
0 0 0 0 1 3 5 4 3 4 5 6 6 5 4 3 2 2 2 1 0 0 0 0 0 0 0 0 0 0 0 0 0 0 0 0 0 0 0 0 0 0 0
0 0 0 0 1 3 4 4 3 4 5 6 5 4 3 3 3 3 2 1 0 0 0 0 0 0 0 0 0 0 0 0 0 0 0 0 0 0 0 0 0 0 0
0 0 0 1 2 3 4 3 4 5 5 4 4 3 3 3 4 4 3 2 1 0 0 0 0 0 0 0 0 0 0 0 0 0 0 0 0 0 0 0 0 0 0
0 0 0 1 3 4 4 3 3 4 3 2 2 3 4 4 5 6 5 3 1 0 0 0 0 0 0 0 0 0 0 0 0 0 0 0 0 0 0 0 0 0 0
1 1 0 1 2 4 5 4 3 3 1 0 1 3 4 4 5 5 5 3 1 0 0 0 0 0 0 0 0 0 0 0 0 0 0 0 0 0 0 0 0 0 0
2 1 0 0 0 2 5 5 3 2 1 0 0 2 3 3 3 2 3 2 1 0 0 0 0 0 0 0 0 0 0 0 0 0 0 0 0 0 0 0 0 0 0
1 1 0 0 0 1 3 4 2 1 0 0 1 2 2 1 1 1 1 1 0 0 0 0 0 0 0 0 0 0 0 0 0 0 0 0 0 0 0 0 0 0 0
0 0 0 0 0 0 1 1 1 0 0 0 1 2 1 0 0 1 0 0 0 0 0 0 0 0 0 0 0 0 0 0 0 0 0 0 0 0 0 0 0 0 0
0 0 0 0 0 0 0 0 0 0 0 0 1 1 0 0 0 0 0 0 0 0 0 0 0 0 0 0 0 0 0 0 0 0 0 0 0 0 0 0 0 0 0
0 0 0 0 0 0 0 0 0 0 0 0 0 0 0 0 0 0 0 0 0 0 0 0 0 0 0 0 0 0 0 0 0 0 0 0 0 0 0 0 0 0 0
0 0 0 0 0 0 0 0 0 0 0 0 0 0 0 0 0 0 0 0 0 0 0 0 0 0 0 0 0 0 0 0 0 0 0 0 0 0 0 0 0 0 0
0 0 0 0 0 0 0 0 0 0 0 0 0 0 0 0 0 0 0 0 0 0 0 0 0 0 0 0 0 0 0 0 0 0 0 0 0 0 0 0 0 0 0
0 0 0 0 0 0 0 0 0 0 0 0 0 0 0 0 0 0 0 0 0 0 0 0 0 0 0 0 0 0 0 0 0 0 0 0 0 0 0 0 0 0 0

GEFSMW_con_prob3kmehi_126.txt.gz
EHI
35 37 38 38 36 33 30 26 23 23 26 30 31 26 20 14 11 10 7 5 5 6 7 6 5 4 4 3 1 0 0 0 0 0 0 0 0 1 1 1 0 0 0
36 39 40 38 34 29 27 24 22 22 24 28 30 27 21 16 12 10 8 5 4 5 6 6 4 3 4 3 1 0 0 0 0 0 0 0 0 0 0 0 0 0 0
32 37 39 34 27 23 23 22 22 23 24 24 23 22 20 17 14 10 9 7 4 3 4 5 4 3 2 3 2 1 1 1 0 0 0 0 0 0 0 0 0 0 0
24 29 31 26 20 17 17 18 21 24 26 23 18 17 17 16 13 12 11 10 7 4 4 4 3 2 1 2 3 2 2 2 1 0 0 0 0 0 0 0 0 0 0
18 21 22 18 14 12 12 14 16 19 24 24 20 17 15 13 12 13 14 12 9 6 4 3 3 2 1 2 3 3 3 3 1 0 0 0 0 0 0 0 0 0 0
16 16 14 11 10 9 8 10 11 13 17 21 19 15 12 9 10 13 14 13 10 7 5 4 4 3 2 2 3 3 3 3 2 1 0 0 0 0 0 0 0 0 0
16 14 11 9 8 6 6 9 11 11 13 15 15 13 10 8 9 11 13 12 10 9 7 7 6 5 4 3 3 3 3 3 3 2 0 0 0 0 0 0 0 0 0
17 15 11 10 9 8 7 9 12 12 11 12 13 13 11 9 9 10 11 11 9 8 8 7 6 5 4 4 4 3 3 3 3 2 1 0 0 0 0 0 0 0 0
17 15 12 10 10 9 8 10 11 10 9 10 12 13 12 11 10 10 9 9 8 8 8 6 4 2 2 3 4 2 1 2 3 3 2 1 0 0 0 0 0 0 0
14 13 11 11 10 8 8 8 8 7 5 7 9 11 12 11 9 9 8 9 9 9 8 6 3 1 0 2 2 1 0 1 3 3 3 2 1 0 0 0 0 0 0
11 10 10 10 8 6 5 6 6 5 4 5 8 10 10 10 9 8 9 9 9 10 9 6 3 1 0 1 2 1 0 1 2 3 3 3 2 0 0 0 0 0 0
9 10 12 12 10 6 4 4 5 5 5 6 7 9 9 10 9 10 11 10 9 10 10 8 5 2 1 1 1 1 1 1 1 2 2 2 1 0 0 0 0 0 0
12 14 16 16 13 9 6 5 4 4 5 6 7 9 10 11 11 12 13 12 10 10 11 9 7 4 2 2 3 3 3 2 1 1 1 1 0 0 0 0 0 0 0
17 18 21 20 17 14 11 9 7 6 6 6 8 10 11 11 12 13 14 13 10 10 11 11 9 7 5 5 5 6 6 4 3 1 0 0 0 0 0 0 0 1 1
19 22 25 25 23 19 16 13 13 13 13 11 11 12 12 12 13 14 16 15 13 13 13 12 12 11 8 6 6 7 7 6 5 3 1 1 1 0 0 0 0 1 2
23 26 29 30 30 27 22 19 20 22 22 19 17 15 15 14 14 15 17 18 19 18 17 16 14 11 7 3 3 4 5 5 5 4 3 2 1 1 0 0 0 1 1
25 29 31 32 32 30 26 23 23 25 26 24 21 20 19 17 16 15 17 21 23 22 20 18 14 9 3 0 0 1 3 4 4 4 3 2 1 1 1 1 0 0 0
26 29 30 29 29 28 25 24 23 23 23 21 20 21 21 19 16 15 17 22 26 26 23 19 13 7 2 0 0 1 2 3 4 4 3 3 2 2 2 2 1 1 0
27 28 28 27 27 26 26 26 25 23 20 19 17 17 17 18 17 16 18 23 28 28 24 18 13 8 3 0 0 1 2 3 3 3 3 2 2 2 1 1 1 1 1
25 25 26 28 29 30 30 30 28 24 21 19 17 15 15 16 17 18 20 23 26 25 20 15 13 9 4 1 0 1 2 3 3 3 2 1 1 1 0 0 1 1 2
19 20 24 28 30 29 29 27 25 21 19 18 16 16 15 15 15 16 18 20 19 16 12 11 9 6 2 0 0 1 2 2 2 2 1 0 0 0 0 0 0 1 1
16 18 23 27 27 26 25 24 21 18 16 16 16 16 15 11 9 11 13 14 11 7 6 5 3 2 0 0 0 0 1 1 0 1 1 0 0 0 0 0 0 0 0
16 18 21 23 22 21 21 20 18 15 13 14 15 13 10 7 6 7 9 9 6 4 3 2 1 0 0 0 0 0 0 0 0 0 0 0 0 0 0 0 0 0 0
14 15 15 15 14 12 13 14 13 10 10 11 10 6 4 4 4 4 4 4 3 3 2 2 1 1 1 1 0 0 0 0 0 0 0 0 0 0 0 0 0 0 0
8 8 8 7 5 4 6 8 8 8 8 8 5 3 2 3 3 1 1 1 1 2 1 1 1 1 1 1 0 0 0 0 0 0 0 0 0 0 0 0 0 0 0
3 3 3 2 1 1 4 6 7 9 9 7 5 3 2 3 3 1 0 0 0 1 0 0 0 1 1 0 0 0 0 0 0 0 0 0 0 0 0 0 0 0 0

GEFSMW_con_prob3kmehi_132.txt.gz
EHI
75 73 68 65 67 71 71 67 63 60 56 49 43 41 44 47 46 41 36 32 27 24 23 26 26 22 19 17 13 9 6 3 1 1 0 1 1 1 0 0 0 0 0
76 74 69 65 67 70 69 65 61 59 54 47 41 38 41 43 40 38 33 28 25 23 23 27 25 22 22 18 13 9 6 3 2 2 1 0 1 1 1 1 1 1 0
74 72 67 65 65 67 65 61 58 54 49 44 39 36 37 36 35 35 32 27 23 21 24 26 23 21 20 18 13 10 8 5 3 2 1 0 0 0 1 1 2 1 1
68 67 66 64 63 62 60 56 53 48 44 41 38 33 32 31 32 36 35 29 23 20 21 23 22 19 17 14 11 10 9 8 5 3 2 1 1 0 0 1 1 1 0
60 63 65 62 59 56 53 49 45 41 39 37 33 29 28 28 30 34 36 30 23 19 17 21 23 20 16 13 11 10 10 9 6 4 3 3 2 1 0 0 0 0 0
57 62 63 59 55 51 47 44 40 36 34 31 26 24 26 26 27 31 34 30 23 17 14 17 22 21 17 15 12 10 9 8 6 4 3 3 2 1 0 0 0 0 0
55 60 60 55 50 46 43 40 37 34 30 25 20 18 20 22 24 27 30 27 19 14 14 17 20 21 18 16 12 10 9 7 5 4 3 2 1 1 1 1 1 1 0
50 54 55 50 44 39 36 35 35 31 26 21 17 14 15 17 20 23 26 22 15 13 18 22 22 21 18 14 12 10 9 7 4 3 3 3 2 2 2 2 2 1 1
43 47 48 44 40 35 32 33 33 30 25 21 17 14 15 17 19 20 21 20 16 16 24 28 25 20 18 15 12 10 8 7 5 4 3 3 3 3 2 3 3 2 1
41 45 46 43 40 36 34 34 33 30 27 23 18 16 17 20 20 19 19 19 19 22 28 29 23 19 18 16 12 9 7 6 6 5 4 3 2 3 3 3 3 3 3
44 48 48 45 41 37 33 32 29 26 25 23 19 17 18 20 21 21 20 19 22 28 29 26 21 18 16 14 12 9 7 5 5 5 4 4 3 3 3 3 4 5 6
47 50 51 48 43 38 33 27 24 21 20 20 18 17 18 19 20 21 21 20 23 27 27 23 18 15 13 13 13 11 7 6 5 5 6 6 6 5 4 4 5 6 6
48 51 55 54 51 45 37 29 23 20 19 20 19 18 18 20 21 21 22 22 22 23 22 20 18 14 12 12 13 12 9 8 7 8 11 11 10 9 7 6 5 5 5
50 54 60 63 62 55 44 34 27 24 24 24 23 23 22 22 22 22 23 23 21 19 17 17 18 17 14 12 13 13 12 11 11 11 14 14 11 10 9 6 4 3 3
52 58 65 70 69 60 47 38 32 30 30 29 27 27 26 24 22 21 23 24 23 20 18 19 21 21 15 10 11 13 14 15 15 14 15 13 9 7 6 4 1 1 2
52 61 71 75 71 60 49 42 38 35 34 32 30 28 27 24 20 19 22 26 28 28 26 25 24 21 12 6 6 11 16 19 20 20 18 11 5 3 2 1 0 0 1
53 63 73 74 69 59 53 48 43 38 35 32 30 29 28 26 23 23 26 30 33 34 32 29 25 21 11 3 2 6 14 21 23 24 21 13 6 2 1 1 0 0 0
57 64 70 69 64 59 55 52 46 40 36 33 31 30 31 31 31 32 32 34 35 34 32 29 26 22 13 4 1 2 7 14 17 18 18 15 8 3 1 1 1 1 1
60 65 68 66 63 60 57 53 46 40 37 35 33 32 32 33 34 36 37 37 36 34 31 29 26 21 13 5 1 0 2 4 7 8 9 10 7 2 0 0 0 0 0
58 62 66 67 66 63 60 55 46 40 37 36 35 34 34 33 32 34 37 38 36 32 28 26 23 19 12 4 0 0 0 0 2 3 3 3 2 1 0 0 0 0 0
53 57 62 64 63 62 60 55 48 41 38 37 37 36 35 32 29 31 34 34 30 25 21 20 18 16 10 4 0 0 0 0 0 1 1 0 0 0 0 0 0 0 0
44 48 53 55 55 55 54 50 45 41 39 38 37 36 34 29 26 26 26 25 22 17 14 13 12 11 8 3 0 0 0 0 0 0 1 0 0 0 0 0 0 0 0
32 35 39 41 43 46 46 42 37 36 35 34 34 32 29 25 22 20 17 15 12 10 9 8 7 5 3 2 0 0 0 0 0 0 0 0 0 0 0 0 0 0 0
22 24 26 26 28 31 32 30 28 27 26 27 27 26 23 20 17 13 9 7 5 4 4 5 4 2 0 0 0 0 0 0 0 0 0 0 0 0 0 0 0 0 0
15 15 15 14 14 15 16 18 19 19 18 18 18 17 15 13 11 7 4 3 2 2 2 2 1 0 0 0 0 0 0 0 0 0 0 0 0 0 0 0 0 0 0
10 10 9 8 8 8 9 11 12 14 15 14 12 11 10 8 6 3 1 1 1 1 1 0 0 0 0 0 0 0 0 0 0 0 0 0 0 0 0 0 0 0 0

GEFSMW_con_prob3kmehi_138.txt.gz
EHI
51 53 56 58 60 61 62 64 61 53 42 35 31 28 26 23 18 11 7 6 5 6 6 5 4 3 3 1 0 0 0 0 0 0 0 0 0 0 0 0 0 0 0
53 55 58 62 63 62 62 62 58 48 38 30 26 23 21 18 14 9 6 6 6 6 6 4 3 3 3 2 1 0 0 0 0 0 0 0 0 0 0 0 0 0 0
53 56 60 62 61 59 59 58 52 43 33 26 22 19 16 14 11 8 7 7 6 5 5 4 3 3 3 2 1 0 0 0 0 0 0 0 0 0 0 0 0 0 0
50 52 56 56 55 53 54 52 47 40 31 25 21 18 15 12 9 7 6 7 6 5 4 3 2 2 1 1 0 0 0 0 0 0 0 0 0 0 0 0 0 0 0
47 47 49 49 48 49 49 47 42 36 30 25 21 17 13 8 6 6 5 5 5 4 3 3 2 1 0 0 0 0 0 0 0 0 0 0 0 0 0 0 0 0 0
43 45 46 45 44 46 46 42 37 32 28 24 21 17 11 6 5 6 6 4 3 3 4 4 2 0 0 0 0 0 0 0 0 0 0 0 0 0 0 0 0 0 0
41 42 42 42 41 41 41 38 34 29 26 23 22 17 10 6 6 8 7 5 3 3 4 3 2 0 0 0 0 0 0 0 0 0 0 0 0 0 0 0 0 0 0
39 36 36 38 38 38 37 34 29 25 23 22 20 17 12 8 7 7 7 7 5 4 4 3 2 1 0 0 0 0 0 0 0 0 0 0 0 0 0 0 0 0 0
33 29 28 31 32 33 33 28 23 21 20 18 17 16 14 11 8 6 7 7 6 5 5 4 3 1 1 0 0 0 1 2 1 0 0 0 0 0 0 0 0 0 0
26 22 20 21 24 26 25 21 18 17 16 15 15 15 14 12 9 7 6 6 5 4 5 5 4 3 2 1 0 0 2 3 2 1 0 0 0 0 0 0 0 0 0
20 17 14 15 18 20 19 17 17 16 16 14 14 14 14 13 11 8 6 5 4 4 4 5 5 4 3 1 0 0 1 2 2 1 0 0 0 0 0 0 0 0 0
18 15 13 15 18 19 18 17 16 15 14 13 12 12 12 12 11 9 6 5 5 4 4 4 5 5 3 1 0 0 0 1 1 0 0 0 0 0 0 0 0 0 0
19 18 18 19 19 18 17 15 14 13 12 11 11 11 11 11 10 8 7 6 6 5 4 4 5 5 4 2 1 0 0 0 0 0 0 0 0 0 0 0 0 0 0
18 21 24 23 20 15 12 12 11 11 11 11 11 11 11 10 9 8 7 6 6 5 5 5 5 5 4 2 1 0 0 0 0 0 0 0 0 0 0 0 0 0 0
17 22 26 24 19 13 10 9 10 10 12 12 13 12 12 11 9 8 7 6 6 4 4 4 5 5 3 1 0 0 0 0 0 0 0 0 0 0 0 0 0 0 0
18 21 24 23 20 16 11 9 9 11 13 13 14 14 12 11 9 8 7 7 6 4 3 2 3 4 2 1 0 0 0 0 0 0 0 0 0 0 0 0 0 0 0
22 24 24 22 21 20 14 9 9 11 12 13 13 13 12 10 9 9 8 7 6 5 3 2 2 2 1 0 0 0 0 0 0 0 0 0 0 0 0 0 0 0 0
22 26 25 23 21 20 16 11 9 11 11 11 12 12 11 10 9 9 9 8 6 4 3 2 2 1 0 0 0 0 0 0 0 0 0 0 0 0 0 0 0 0 0
17 20 24 23 21 19 17 12 10 10 11 11 11 11 10 10 9 7 7 6 4 2 1 1 1 0 0 0 0 0 0 0 0 0 0 0 0 0 0 0 0 0 0
12 15 19 20 19 19 17 13 11 11 10 9 9 9 9 8 7 6 5 3 2 1 0 0 0 0 0 0 0 0 0 0 0 0 0 0 0 0 0 0 0 0 0
12 14 16 15 15 16 15 12 10 8 7 7 6 6 6 6 6 5 5 3 1 0 0 0 0 0 0 0 0 0 0 0 0 0 0 0 0 0 0 0 0 0 0
12 14 14 12 10 10 10 8 6 5 4 4 4 4 4 4 4 4 4 3 1 0 0 0 0 0 0 0 0 0 0 0 0 0 0 0 0 0 0 0 0 0 0
11 11 10 8 6 5 4 3 3 2 3 3 3 3 3 3 3 3 3 2 1 0 0 0 0 0 0 0 0 0 0 0 0 0 0 0 0 0 0 0 0 0 0
7 6 5 3 2 1 1 1 1 1 1 2 2 2 2 2 2 2 2 1 0 0 0 0 0 0 0 0 0 0 0 0 0 0 0 0 0 0 0 0 0 0 0
2 1 1 0 0 0 0 0 0 0 0 1 1 1 1 1 1 1 1 0 0 0 0 0 0 0 0 0 0 0 0 0 0 0 0 0 0 0 0 0 0 0 0
0 0 0 0 0 0 0 0 0 0 0 0 0 0 0 0 0 0 0 0 0 0 0 0 0 0 0 0 0 0 0 0 0 0 0 0 0 0 0 0 0 0 0

GEFSMW_con_prob3kmehi_144.txt.gz
EHI
31 34 37 39 38 35 31 27 22 19 18 16 12 6 4 4 5 4 2 1 0 0 0 0 0 0 0 0 0 0 0 0 0 0 0 0 0 0 0 0 0 0 0
31 34 38 41 42 40 34 29 25 22 20 17 13 7 4 4 4 4 2 1 0 0 0 0 0 0 0 0 0 0 0 0 0 0 0 0 0 0 0 0 0 0 0
28 32 36 39 42 41 37 32 28 26 21 17 12 8 5 5 4 3 2 1 0 0 0 0 0 0 0 0 0 0 0 0 0 0 0 0 0 0 0 0 0 0 0
24 28 32 34 35 36 35 33 31 27 20 15 12 10 9 7 4 2 1 1 0 0 0 0 0 0 0 0 0 0 0 0 0 0 0 0 0 0 0 0 0 0 0
22 25 28 29 29 30 31 32 31 25 18 13 12 12 12 9 5 2 1 0 0 0 0 0 0 0 0 0 0 0 0 0 0 0 0 0 0 0 0 0 0 0 0
21 22 23 23 23 25 28 30 27 22 17 13 11 12 12 10 6 3 1 0 0 0 0 0 0 0 0 0 0 0 0 0 0 0 0 0 0 0 0 0 0 0 0
17 18 18 17 19 21 26 27 24 19 17 15 12 10 10 9 7 5 2 0 0 0 0 0 0 0 0 0 0 0 0 0 0 0 0 0 0 0 0 0 0 0 0
12 13 13 13 15 19 23 25 23 20 19 17 14 11 9 8 6 5 3 1 0 0 0 0 0 0 0 0 0 0 0 0 0 0 0 0 0 0 0 0 0 0 0
7 7 8 10 12 16 20 22 22 21 21 20 17 13 10 8 6 5 3 1 0 0 0 0 0 0 0 0 0 0 0 0 0 0 0 0 0 0 0 0 0 0 0
2 3 5 7 9 12 15 18 20 19 19 19 17 14 12 11 8 6 3 1 0 0 0 0 0 0 0 0 0 0 0 0 0 1 0 0 0 0 0 0 0 0 0
0 0 2 4 6 8 10 12 14 14 14 13 12 12 12 12 10 7 4 1 0 0 0 0 0 0 0 0 0 0 0 0 0 0 0 0 1 0 0 0 0 0 0
0 0 0 2 4 5 6 7 8 9 10 9 8 7 9 11 11 8 5 3 1 1 1 1 1 1 1 1 1 0 0 0 0 0 0 0 0 0 0 0 0 0 0
0 0 1 1 2 3 4 4 4 5 7 7 6 5 5 7 9 8 6 5 3 2 2 1 2 3 3 2 1 0 0 0 0 0 0 0 0 0 0 0 0 0 0
0 1 3 2 2 2 2 1 1 2 4 5 5 4 3 4 6 6 6 5 4 3 3 2 3 3 3 3 2 1 0 0 0 0 0 0 0 0 0 0 0 0 0
1 1 2 3 2 1 1 1 0 1 1 3 4 4 3 3 3 4 4 4 4 3 2 2 2 3 3 3 3 2 0 0 0 0 0 0 0 0 0 0 0 0 0
2 2 2 3 2 1 0 1 1 0 0 1 2 3 3 3 4 4 4 4 4 3 1 0 1 2 2 1 1 1 0 0 0 0 0 0 0 0 0 0 0 0 0
3 3 4 5 4 2 1 0 0 0 0 1 2 3 4 4 5 5 4 4 3 2 1 0 0 1 1 0 0 0 0 0 0 0 0 0 0 0 0 0 0 0 0
4 4 5 5 3 2 2 1 0 0 0 0 1 2 3 4 4 4 4 3 2 1 0 0 0 0 0 0 0 0 0 0 0 0 0 0 0 0 0 0 0 0 0
3 3 3 2 1 1 2 2 1 1 1 1 0 1 3 3 3 3 3 1 1 0 0 0 0 0 0 0 0 0 0 0 0 0 0 0 0 0 0 0 0 0 0
2 1 1 0 0 0 1 1 1 1 2 1 0 1 3 3 3 3 2 1 0 0 0 0 0 0 0 0 0 0 0 0 0 0 0 0 0 0 0 0 0 0 0
2 1 0 0 0 0 0 0 0 1 1 1 0 1 3 3 2 1 1 1 1 1 1 1 0 0 0 0 0 0 0 0 0 0 0 0 0 0 0 0 0 0 0
1 0 0 0 0 0 0 0 0 0 0 0 0 0 1 2 1 1 1 2 2 2 2 2 1 0 0 0 0 0 0 0 0 0 0 0 0 0 0 0 0 0 0
0 0 0 0 0 0 0 0 0 0 0 0 0 1 1 2 2 2 3 3 3 3 3 2 1 0 0 0 0 0 0 0 0 0 0 0 0 0 0 0 0 0 0
0 0 0 0 0 0 0 0 0 0 0 0 0 1 2 3 3 2 2 2 2 2 1 1 0 0 0 0 0 0 0 0 0 0 0 0 0 0 0 0 0 0 0
0 0 0 0 0 0 0 0 0 0 0 0 0 1 2 2 1 1 1 1 1 1 0 0 0 0 0 0 0 0 0 0 0 0 0 0 0 0 0 0 0 0 0
0 0 0 0 0 0 0 0 0 0 0 0 0 0 1 1 0 0 0 0 0 0 0 0 0 0 0 0 0 0 0 0 0 0 0 0 0 0 0 0 0 0 0

GEFSMW_con_prob3kmehi_150.txt.gz
EHI
48 54 55 52 52 53 52 48 47 49 49 46 41 34 25 21 20 17 13 7 3 1 0 1 2 2 2 1 1 2 2 1 0 0 0 0 0 0 0 0 0 0 0
46 51 54 52 52 52 50 46 46 47 48 46 41 35 29 22 17 16 14 10 4 1 0 1 2 3 2 1 2 3 3 1 0 0 0 0 0 0 0 0 0 0 0
41 48 52 51 49 50 47 45 44 44 45 44 39 33 27 19 15 15 15 12 7 2 0 1 2 2 2 2 3 4 4 2 1 1 0 0 0 0 0 0 0 0 0
34 40 49 50 47 46 44 44 44 44 44 43 39 32 22 15 13 14 15 13 9 4 1 2 2 2 1 2 2 2 3 4 3 2 1 0 0 0 0 0 0 0 0
27 33 41 46 46 43 41 42 45 44 42 41 38 32 22 14 11 11 12 12 9 5 3 4 4 3 1 1 0 1 3 4 5 4 2 1 0 0 0 0 0 0 0
25 31 36 39 41 40 39 39 41 39 36 33 31 29 23 15 9 8 8 7 6 5 5 6 7 6 3 2 1 2 3 4 4 4 3 1 0 0 0 0 0 0 0
28 31 32 33 34 34 35 35 34 32 29 25 22 22 21 15 9 6 4 2 2 3 4 4 6 7 6 5 5 4 4 4 3 4 3 1 1 1 1 0 0 0 0
25 26 28 28 28 29 29 29 29 29 26 22 19 18 18 14 8 4 2 0 0 1 1 2 2 5 7 9 10 9 7 5 4 3 3 2 1 2 2 1 1 1 0
15 17 20 23 25 25 24 25 26 25 23 22 20 17 15 11 6 3 2 1 0 0 0 0 0 3 8 10 12 13 11 8 5 4 4 3 2 2 2 2 3 4 3
10 12 15 21 23 21 20 22 24 23 21 21 19 16 13 10 7 5 4 3 2 1 0 0 1 4 8 11 11 13 13 11 8 7 5 4 5 5 4 4 6 7 9
12 13 17 21 21 19 19 21 22 22 21 19 17 15 12 10 9 8 7 6 4 2 1 1 2 4 7 9 10 10 10 10 10 9 7 6 8 9 8 7 7 8 10
15 17 19 20 18 17 19 20 20 20 19 19 19 17 14 11 9 9 8 7 7 5 4 5 5 4 5 8 9 9 8 8 9 9 8 8 9 11 12 10 7 6 6
15 18 20 18 15 14 15 16 16 16 17 19 19 18 16 13 12 10 9 8 8 8 7 7 6 5 4 6 8 8 7 8 8 9 9 9 9 10 11 10 7 4 3
16 18 21 19 15 14 13 13 13 14 17 18 16 15 15 15 15 13 11 10 9 9 9 9 7 5 5 6 7 8 8 8 9 9 8 8 7 7 7 7 7 4 3
20 21 23 22 18 17 15 13 13 14 16 16 14 13 13 14 14 14 12 11 10 9 10 11 9 7 6 5 5 6 7 9 9 8 7 5 4 3 3 4 4 4 4
22 23 25 23 19 17 16 15 14 14 15 14 13 12 12 12 12 12 12 11 10 9 9 10 10 8 4 2 2 3 5 7 8 8 6 3 1 1 1 1 1 2 2
22 23 25 24 20 18 17 17 17 17 16 14 13 13 12 12 11 11 11 11 11 10 9 8 8 6 3 0 0 1 2 4 6 7 6 3 1 0 0 0 0 0 1
22 23 25 24 23 20 18 18 19 18 17 16 15 15 14 13 13 13 13 14 14 12 9 6 5 4 2 0 0 0 1 3 5 6 5 3 2 0 0 0 0 0 0
18 20 22 24 23 21 20 19 18 17 17 17 16 15 13 13 14 15 17 17 15 11 8 5 4 4 3 1 0 1 3 5 6 4 3 2 1 0 0 0 0 0 0
14 15 20 23 23 21 20 18 16 15 15 15 15 14 14 14 14 16 17 16 13 10 7 5 5 5 4 2 0 1 2 4 4 4 3 1 0 0 0 0 0 0 0
12 14 17 20 20 19 17 15 14 13 14 14 14 14 16 15 14 14 15 14 12 10 7 5 4 4 4 2 1 0 1 2 3 4 4 2 1 0 0 0 0 0 0
11 12 14 14 14 15 15 13 13 14 15 15 12 11 13 14 13 12 12 12 11 9 5 3 3 3 3 2 1 0 0 1 2 3 3 2 1 0 0 0 0 0 0
9 10 12 11 10 11 13 13 13 14 14 13 9 7 8 9 9 9 8 8 8 7 4 3 3 3 2 2 1 0 0 0 1 2 1 1 0 0 0 0 0 0 0
5 8 11 10 8 8 9 10 11 10 9 8 5 4 4 5 5 4 4 4 4 3 3 3 2 1 1 1 0 0 0 0 0 0 0 0 0 0 0 0 0 0 0
2 5 9 8 6 5 6 7 7 6 5 3 2 2 3 3 2 1 1 1 1 1 2 2 1 0 0 0 0 0 0 0 0 0 0 0 0 0 0 0 0 0 0
1 3 5 6 5 4 4 5 5 5 3 1 1 1 2 2 1 0 0 0 0 0 1 1 0 0 0 0 0 0 0 0 0 0 0 0 0 0 0 0 0 0 0